TimeCDT,TemperatureF,Dew PointF,Humidity,Sea Level PressureIn,VisibilityMPH,Wind Direction,Wind SpeedMPH,Gust SpeedMPH,PrecipitationIn,Events,Conditions,WindDirDegrees,DateUTC
12:15 AM,73.4,68.0,83,29.78,10.0,Calm,Calm,-,N/A,,Clear,0,2013-06-30 05:15:00
12:35 AM,71.6,68.0,88,29.78,10.0,Calm,Calm,-,N/A,,Clear,0,2013-06-30 05:35:00
12:55 AM,73.4,69.8,88,29.78,10.0,Calm,Calm,-,N/A,,Clear,0,2013-06-30 05:55:00
1:15 AM,73.4,69.8,88,29.78,10.0,Calm,Calm,-,N/A,,Clear,0,2013-06-30 06:15:00
1:35 AM,71.6,68.0,88,29.77,10.0,Calm,Calm,-,N/A,,Clear,0,2013-06-30 06:35:00
1:55 AM,71.6,68.0,88,29.77,10.0,Calm,Calm,-,N/A,,Clear,0,2013-06-30 06:55:00
2:15 AM,71.6,69.8,94,29.76,10.0,Calm,Calm,-,N/A,,Clear,0,2013-06-30 07:15:00
2:35 AM,71.6,68.0,88,29.75,10.0,Calm,Calm,-,N/A,,Clear,0,2013-06-30 07:35:00
2:55 AM,69.8,66.2,88,29.75,7.0,Calm,Calm,-,N/A,,Clear,0,2013-06-30 07:55:00
3:15 AM,69.8,66.2,88,29.74,7.0,North,3.5,-,N/A,,Clear,350,2013-06-30 08:15:00
3:35 AM,71.6,68.0,88,29.75,10.0,Calm,Calm,-,N/A,,Clear,0,2013-06-30 08:35:00
3:55 AM,69.8,68.0,94,29.75,10.0,Calm,Calm,-,N/A,,Clear,0,2013-06-30 08:55:00
4:15 AM,69.8,66.2,88,29.75,4.0,Calm,Calm,-,N/A,,Clear,0,2013-06-30 09:15:00
4:35 AM,69.8,66.2,88,29.76,10.0,Calm,Calm,-,N/A,,Clear,0,2013-06-30 09:35:00
4:55 AM,69.8,66.2,88,29.77,7.0,Calm,Calm,-,N/A,,Clear,0,2013-06-30 09:55:00
5:15 AM,68.0,64.4,88,29.77,7.0,Calm,Calm,-,N/A,,Clear,0,2013-06-30 10:15:00
5:35 AM,68.0,66.2,94,29.77,10.0,Calm,Calm,-,N/A,,Clear,0,2013-06-30 10:35:00
5:55 AM,68.0,66.2,94,29.77,10.0,Calm,Calm,-,N/A,,Clear,0,2013-06-30 10:55:00
6:15 AM,68.0,66.2,94,29.77,10.0,Calm,Calm,-,N/A,,Clear,0,2013-06-30 11:15:00
6:35 AM,69.8,66.2,88,29.77,10.0,Calm,Calm,-,N/A,,Clear,0,2013-06-30 11:35:00
6:55 AM,71.6,68.0,88,29.77,10.0,Calm,Calm,-,N/A,,Clear,0,2013-06-30 11:55:00
7:15 AM,73.4,68.0,83,29.78,10.0,Calm,Calm,-,N/A,,Clear,0,2013-06-30 12:15:00
7:35 AM,75.2,69.8,83,29.79,10.0,West,4.6,-,N/A,,Clear,270,2013-06-30 12:35:00
7:55 AM,77.0,69.8,78,29.79,10.0,WNW,4.6,-,N/A,,Clear,300,2013-06-30 12:55:00
8:15 AM,78.8,69.8,74,29.79,10.0,Calm,Calm,-,N/A,,Clear,0,2013-06-30 13:15:00
8:35 AM,80.6,68.0,65,29.79,10.0,West,3.5,-,N/A,,Clear,270,2013-06-30 13:35:00
8:55 AM,82.4,68.0,62,29.79,10.0,NW,4.6,-,N/A,,Clear,310,2013-06-30 13:55:00
9:15 AM,84.2,66.2,55,29.79,10.0,West,5.8,-,N/A,,Clear,270,2013-06-30 14:15:00
9:35 AM,86.0,66.2,51,29.79,10.0,West,9.2,-,N/A,,Clear,270,2013-06-30 14:35:00
9:55 AM,86.0,66.2,51,29.79,10.0,West,8.1,-,N/A,,Clear,270,2013-06-30 14:55:00
10:15 AM,87.8,64.4,46,29.79,10.0,WNW,5.8,-,N/A,,Clear,290,2013-06-30 15:15:00
10:35 AM,89.6,66.2,46,29.79,10.0,West,4.6,-,N/A,,Clear,270,2013-06-30 15:35:00
10:55 AM,89.6,62.6,40,29.79,10.0,WNW,8.1,-,N/A,,Clear,300,2013-06-30 15:55:00
11:15 AM,91.4,60.8,36,29.79,10.0,West,9.2,-,N/A,,Clear,280,2013-06-30 16:15:00
11:35 AM,91.4,60.8,36,29.79,10.0,SW,9.2,-,N/A,,Clear,230,2013-06-30 16:35:00
11:55 AM,91.4,60.8,36,29.78,10.0,WSW,8.1,-,N/A,,Scattered Clouds,250,2013-06-30 16:55:00
12:15 PM,91.4,60.8,36,29.78,10.0,West,6.9,-,N/A,,Scattered Clouds,270,2013-06-30 17:15:00
12:35 PM,93.2,60.8,34,29.77,10.0,West,10.4,-,N/A,,Scattered Clouds,260,2013-06-30 17:35:00
12:55 PM,93.2,57.2,30,29.77,10.0,NW,12.7,18.4,N/A,,Scattered Clouds,310,2013-06-30 17:55:00
1:15 PM,91.4,57.2,31,29.76,10.0,West,12.7,-,N/A,,Scattered Clouds,270,2013-06-30 18:15:00
1:35 PM,93.2,53.6,26,29.76,10.0,West,13.8,-,N/A,,Mostly Cloudy,260,2013-06-30 18:35:00
1:55 PM,95.0,55.4,26,29.76,10.0,West,10.4,17.3,N/A,,Scattered Clouds,280,2013-06-30 18:55:00
2:15 PM,95.0,53.6,25,29.76,10.0,WNW,15.0,19.6,N/A,,Scattered Clouds,290,2013-06-30 19:15:00
2:35 PM,95.0,51.8,23,29.75,10.0,NW,10.4,-,N/A,,Clear,310,2013-06-30 19:35:00
2:55 PM,95.0,53.6,25,29.75,10.0,West,13.8,19.6,N/A,,Scattered Clouds,280,2013-06-30 19:55:00
3:15 PM,95.0,53.6,25,29.76,10.0,NW,12.7,18.4,N/A,,Scattered Clouds,310,2013-06-30 20:15:00
3:35 PM,95.0,51.8,23,29.76,10.0,WNW,17.3,20.7,N/A,,Scattered Clouds,300,2013-06-30 20:35:00
3:55 PM,93.2,51.8,24,29.76,10.0,NW,10.4,23.0,N/A,,Clear,310,2013-06-30 20:55:00
4:15 PM,93.2,51.8,24,29.76,10.0,NW,16.1,-,N/A,,Clear,320,2013-06-30 21:15:00
4:35 PM,93.2,50.0,23,29.76,10.0,WNW,12.7,17.3,N/A,,Clear,290,2013-06-30 21:35:00
4:55 PM,93.2,50.0,23,29.76,10.0,WNW,10.4,19.6,N/A,,Clear,300,2013-06-30 21:55:00
5:15 PM,93.2,50.0,23,29.76,10.0,WNW,15.0,-,N/A,,Clear,300,2013-06-30 22:15:00
5:35 PM,91.4,50.0,24,29.76,10.0,NW,13.8,17.3,N/A,,Clear,320,2013-06-30 22:35:00
5:55 PM,91.4,51.8,26,29.76,10.0,NW,8.1,11.5,N/A,,Clear,310,2013-06-30 22:55:00
6:15 PM,91.4,51.8,26,29.76,10.0,NW,9.2,-,N/A,,Clear,310,2013-06-30 23:15:00
6:35 PM,89.6,53.6,29,29.76,10.0,WNW,9.2,-,N/A,,Clear,300,2013-06-30 23:35:00
6:55 PM,89.6,55.4,31,29.77,10.0,NW,6.9,-,N/A,,Clear,310,2013-06-30 23:55:00
7:15 PM,87.8,55.4,33,29.77,10.0,NW,4.6,-,N/A,,Clear,310,2013-07-01 00:15:00
7:35 PM,86.0,57.2,37,29.78,10.0,NW,4.6,-,N/A,,Clear,320,2013-07-01 00:35:00
7:55 PM,82.4,60.8,48,29.79,10.0,Calm,Calm,-,N/A,,Clear,0,2013-07-01 00:55:00
8:15 PM,82.4,60.8,48,29.79,10.0,Calm,Calm,-,N/A,,Clear,0,2013-07-01 01:15:00
8:35 PM,78.8,62.6,57,29.79,10.0,Calm,Calm,-,N/A,,Clear,0,2013-07-01 01:35:00
8:55 PM,78.8,62.6,57,29.80,10.0,Calm,Calm,-,N/A,,Clear,0,2013-07-01 01:55:00
9:15 PM,77.0,64.4,65,29.81,10.0,Calm,Calm,-,N/A,,Clear,0,2013-07-01 02:15:00
9:35 PM,75.2,64.4,69,29.81,10.0,Calm,Calm,-,N/A,,Clear,0,2013-07-01 02:35:00
9:55 PM,73.4,64.4,73,29.82,10.0,Calm,Calm,-,N/A,,Clear,0,2013-07-01 02:55:00
10:15 PM,73.4,64.4,73,29.82,10.0,Calm,Calm,-,N/A,,Clear,0,2013-07-01 03:15:00
10:35 PM,73.4,64.4,73,29.82,10.0,NNW,3.5,-,N/A,,Clear,340,2013-07-01 03:35:00
10:55 PM,73.4,64.4,73,29.82,10.0,Calm,Calm,-,N/A,,Clear,0,2013-07-01 03:55:00
11:15 PM,73.4,64.4,73,29.83,10.0,Calm,Calm,-,N/A,,Clear,0,2013-07-01 04:15:00
11:35 PM,73.4,64.4,73,29.83,10.0,Calm,Calm,-,N/A,,Clear,0,2013-07-01 04:35:00
11:55 PM,73.4,64.4,73,29.84,10.0,Calm,Calm,-,N/A,,Clear,0,2013-07-01 04:55:00